Погода в Блонты

Латвия     56°36′38″N   27°46′58″E
темп.,
°C
ветер,
м/с
пор.,
м/с
влажн.,
%
обл.,
%
осадки,
мм/ч
давл.,
гПа
погр.,
м
5 марта, пт
пт523:00−3зсз26730 0.0 1009334
02:00−3з37700 0.0 1010469
05:00−3зсз487167 0.1 10101201
08:00−3сз6108183 0.5 10111039
11:00−2ссз584795 0.1 10121665
14:00−2ссз593874 0.1 10142358
17:00−3ссз3746100 0.1 10151642
20:00−4сз125587 0.1 101781
6 марта, сб
сб623:00−5ссв236456 0.0 1019115
02:00−6ссз247529 0.0 1020169
05:00−6зсз26780 0.0 1020275
08:00−6зсз37750 0.0 1022533
11:00−3зсз46530 0.0 10211010
14:00−1з594511 0.0 10191456
17:00−1зюз61353100 0.0 10151408
20:000зюз71661100 0.0 10131387
7 марта, вс
вс723:00−1зюз81765100 0.0 10071369
02:00−1зюз81682100 0.1 10031232
05:00−2сз71478100 2.1 10011339
08:00−5сз5144283 2.1 10042043
11:00−2зсз714370 0.0 10042560
14:00−1з8135450 0.5 10021915
17:00−2з71457100 0.3 10002050
20:00−3зсз71462100 0.7 9991713
8 марта, пн
пн823:00−5сз71371100 0.1 10021713
02:00−8сз5105983 0.1 10061105
05:00−9сз38670 0.0 1008710
08:00−8сз37670 0.0 1010639
11:00−6сз476363 0.0 10111218
14:00−5ссз465782 0.1 10131234
17:00−7с5864100 0.1 10141254
20:00−9с5973100 0.1 1018950
9 марта, вт
вт923:00−10с4876100 0.0 1020764
02:00−11ссз277764 0.0 1022472
05:00−11ссз26800 0.0 1023339
08:00−10ссз26790 0.0 1025312
11:00−6сз34580 0.0 1026621
14:00−3зсз35480 0.0 1026910
17:00−3з37550 0.0 1025666
20:00−5з4116518 0.0 1026442